| time (UTC) | temp F | wind direction | speed MPH | gust MPH | rain 1hr in | rain 24hr in | rain mn in | humidity % | barometer mb |
| 20260505064945 | 54 | 125 | 5.0 | 9.0 | 0.00 | 0.00 | 0.00 | 89 | 1014.0 |
| 20260505064444 | 54 | 199 | 6.0 | 9.0 | 0.00 | 0.00 | 0.00 | 89 | 1014.0 |
| 20260505063944 | 54 | 247 | 4.0 | 10.0 | 0.00 | 0.00 | 0.00 | 89 | 1015.0 |
| 20260505063445 | 54 | 174 | 6.0 | 10.0 | 0.00 | 0.00 | 0.00 | 88 | 1015.0 |
| 20260505062944 | 54 | 196 | 7.0 | 10.0 | 0.00 | 0.00 | 0.00 | 88 | 1015.0 |
| 20260505062446 | 55 | 211 | 5.0 | 14.0 | 0.00 | 0.00 | 0.00 | 88 | 1015.0 |
| 20260505061944 | 55 | 205 | 8.0 | 14.0 | 0.00 | 0.00 | 0.00 | 88 | 1015.0 |
| 20260505061444 | 55 | 202 | 6.0 | 12.0 | 0.00 | 0.00 | 0.00 | 87 | 1016.0 |
| 20260505060944 | 55 | 147 | 7.0 | 11.0 | 0.00 | 0.00 | 0.00 | 87 | 1016.0 |
| 20260505060445 | 55 | 176 | 6.0 | 10.0 | 0.00 | 0.00 | 0.00 | 87 | 1016.0 |
| 20260505055944 | 55 | 152 | 7.0 | 10.0 | 0.00 | 0.00 | 0.00 | 86 | 1016.0 |
| 20260505055445 | 56 | 267 | 7.0 | 14.0 | 0.00 | 0.00 | 0.00 | 86 | 1016.0 |
| 20260505054944 | 56 | 316 | 9.0 | 13.0 | 0.00 | 0.00 | 0.00 | 86 | 1016.0 |
| 20260505054444 | 56 | 293 | 7.0 | 11.0 | 0.00 | 0.00 | 0.00 | 85 | 1016.0 |
| 20260505053944 | 56 | 220 | 7.0 | 12.0 | 0.00 | 0.00 | 0.00 | 85 | 1016.0 |
| 20260505053444 | 56 | 251 | 7.0 | 13.0 | 0.00 | 0.00 | 0.00 | 84 | 1016.0 |
| 20260505052944 | 56 | 254 | 6.0 | 13.0 | 0.00 | 0.00 | 0.00 | 84 | 1017.0 |
| 20260505052445 | 57 | 252 | 8.0 | 13.0 | 0.00 | 0.00 | 0.00 | 84 | 1017.0 |
| 20260505051945 | 57 | 275 | 9.0 | 12.0 | 0.00 | 0.00 | 0.00 | 83 | 1017.0 |
| 20260505051444 | 57 | 247 | 7.0 | 9.0 | 0.00 | 0.00 | 0.00 | 83 | 1017.0 |
| 20260505050944 | 57 | 201 | 8.0 | 13.0 | 0.00 | 0.00 | 0.00 | 82 | 1017.0 |
| 20260505050452 | 57 | 189 | 8.0 | 13.0 | 0.00 | 0.00 | 0.00 | 82 | 1017.0 |
| 20260505041445 | 60 | 221 | 9.0 | 13.0 | 0.00 | 0.00 | 0.00 | 76 | 1018.0 |
| 20260505040945 | 60 | 114 | 9.0 | 13.0 | 0.00 | 0.00 | 0.00 | 75 | 1018.0 |
| 20260505040444 | 61 | 271 | 9.0 | 19.0 | 0.00 | 0.00 | 0.00 | 75 | 1018.0 |
| 20260505035945 | 61 | 228 | 11.0 | 19.0 | 0.00 | 0.00 | 0.00 | 74 | 1018.0 |
| 20260505035444 | 62 | 223 | 7.0 | 16.0 | 0.00 | 0.00 | 0.00 | 73 | 1018.0 |
| 20260505034944 | 62 | 244 | 6.0 | 11.0 | 0.00 | 0.00 | 0.00 | 73 | 1018.0 |
| 20260505034445 | 63 | 225 | 6.0 | 12.0 | 0.00 | 0.00 | 0.00 | 72 | 1018.0 |
| 20260505033944 | 63 | 229 | 7.0 | 13.0 | 0.00 | 0.00 | 0.00 | 71 | 1018.0 |
| 20260505033444 | 63 | 212 | 8.0 | 14.0 | 0.00 | 0.00 | 0.00 | 70 | 1018.0 |
| 20260505032946 | 64 | 258 | 8.0 | 14.0 | 0.00 | 0.00 | 0.00 | 69 | 1018.0 |
| 20260505032444 | 65 | 225 | 7.0 | 14.0 | 0.00 | 0.00 | 0.00 | 68 | 1018.0 |
| 20260505031945 | 65 | 251 | 6.0 | 13.0 | 0.00 | 0.00 | 0.00 | 67 | 1018.0 |
| 20260505031444 | 66 | 243 | 7.0 | 13.0 | 0.00 | 0.00 | 0.00 | 66 | 1018.0 |
| 20260505030944 | 66 | 248 | 8.0 | 13.0 | 0.00 | 0.00 | 0.00 | 65 | 1018.0 |
| 20260505030444 | 67 | 189 | 6.0 | 11.0 | 0.00 | 0.00 | 0.00 | 65 | 1018.0 |
| 20260505025945 | 67 | 259 | 7.0 | 13.0 | 0.00 | 0.00 | 0.00 | 64 | 1018.0 |
| 20260505025446 | 67 | 239 | 8.0 | 13.0 | 0.00 | 0.00 | 0.00 | 63 | 1018.0 |
| 20260505024947 | 68 | 210 | 6.0 | 11.0 | 0.00 | 0.00 | 0.00 | 62 | 1017.0 |
| 20260505024444 | 69 | 248 | 7.0 | 12.0 | 0.00 | 0.00 | 0.00 | 61 | 1017.0 |
| 20260505023944 | 69 | 280 | 8.0 | 12.0 | 0.00 | 0.00 | 0.00 | 61 | 1017.0 |
| 20260505023444 | 70 | 249 | 5.0 | 11.0 | 0.00 | 0.00 | 0.00 | 60 | 1017.0 |
| 20260505022945 | 70 | 214 | 6.0 | 11.0 | 0.00 | 0.00 | 0.00 | 59 | 1017.0 |
| 20260505022446 | 71 | 195 | 8.0 | 13.0 | 0.00 | 0.00 | 0.00 | 58 | 1017.0 |
| 20260505021944 | 72 | 233 | 6.0 | 8.0 | 0.00 | 0.00 | 0.00 | 56 | 1016.0 |
| 20260505021444 | 72 | 196 | 5.0 | 10.0 | 0.00 | 0.00 | 0.00 | 55 | 1016.0 |
| 20260505020944 | 73 | 176 | 5.0 | 9.0 | 0.00 | 0.00 | 0.00 | 55 | 1016.0 |
| 20260505020444 | 73 | 249 | 6.0 | 11.0 | 0.00 | 0.00 | 0.00 | 54 | 1016.0 |
| 20260505015944 | 73 | 165 | 7.0 | 10.0 | 0.00 | 0.00 | 0.00 | 53 | 1017.0 |
| 20260505015444 | 73 | 194 | 7.0 | 11.0 | 0.00 | 0.00 | 0.00 | 52 | 1017.0 |
| 20260505014945 | 74 | 185 | 6.0 | 11.0 | 0.00 | 0.00 | 0.00 | 52 | 1017.0 |
| 20260505014444 | 74 | 191 | 7.0 | 11.0 | 0.00 | 0.00 | 0.00 | 51 | 1016.0 |
| 20260505013945 | 74 | 254 | 7.0 | 11.0 | 0.00 | 0.00 | 0.00 | 50 | 1016.0 |
| 20260505013445 | 75 | 202 | 8.0 | 11.0 | 0.00 | 0.00 | 0.00 | 49 | 1016.0 |
| 20260505012945 | 75 | 196 | 7.0 | 11.0 | 0.00 | 0.00 | 0.00 | 48 | 1016.0 |
| 20260505012444 | 76 | 211 | 5.0 | 11.0 | 0.00 | 0.00 | 0.00 | 48 | 1016.0 |
| 20260505011946 | 76 | 205 | 5.0 | 8.0 | 0.00 | 0.00 | 0.00 | 48 | 1015.0 |
| 20260505011444 | 76 | 231 | 6.0 | 9.0 | 0.00 | 0.00 | 0.00 | 47 | 1015.0 |
| 20260505010944 | 76 | 220 | 7.0 | 9.0 | 0.00 | 0.00 | 0.00 | 46 | 1015.0 |
| 20260505010444 | 76 | 182 | 8.0 | 13.0 | 0.00 | 0.00 | 0.00 | 46 | 1015.0 |
| 20260505005945 | 77 | 259 | 7.0 | 11.0 | 0.00 | 0.00 | 0.00 | 46 | 1015.0 |
| 20260505005444 | 77 | 227 | 7.0 | 12.0 | 0.00 | 0.00 | 0.00 | 46 | 1014.0 |
| 20260505004944 | 77 | 221 | 7.0 | 10.0 | 0.00 | 0.00 | 0.00 | 45 | 1014.0 |
| 20260505004444 | 77 | 204 | 6.0 | 11.0 | 0.00 | 0.00 | 0.00 | 46 | 1014.0 |
| 20260505003944 | 77 | 212 | 8.0 | 11.0 | 0.00 | 0.00 | 0.00 | 45 | 1013.0 |
| 20260505003444 | 78 | 253 | 5.0 | 9.0 | 0.00 | 0.00 | 0.00 | 44 | 1013.0 |
| 20260505002945 | 79 | 239 | 7.0 | 11.0 | 0.00 | 0.00 | 0.00 | 44 | 1013.0 |
| 20260505002445 | 79 | 185 | 5.0 | 9.0 | 0.00 | 0.00 | 0.00 | 43 | 1012.0 |
| 20260505001944 | 79 | 258 | 7.0 | 8.0 | 0.00 | 0.00 | 0.00 | 43 | 1012.0 |
| 20260505001446 | 79 | 214 | 6.0 | 9.0 | 0.00 | 0.00 | 0.00 | 42 | 1011.0 |
| 20260505000944 | 80 | 256 | 6.0 | 9.0 | 0.00 | 0.00 | 0.00 | 40 | 1010.0 |
| 20260505000447 | 81 | 211 | 4.0 | 8.0 | 0.00 | 0.00 | 0.00 | 42 | 1010.0 |
| 20260504235945 | 80 | 246 | 4.0 | 10.0 | 0.00 | 0.00 | 0.00 | 43 | 1010.0 |
| 20260504235445 | 80 | 154 | 4.0 | 9.0 | 0.00 | 0.00 | 0.00 | 43 | 1010.0 |
| 20260504234944 | 81 | 191 | 5.0 | 9.0 | 0.00 | 0.00 | 0.00 | 42 | 1010.0 |
| 20260504234444 | 81 | 251 | 5.0 | 8.0 | 0.00 | 0.00 | 0.00 | 41 | 1010.0 |
| 20260504233945 | 81 | 228 | 5.0 | 8.0 | 0.00 | 0.00 | 0.00 | 41 | 1010.0 |
| 20260504233445 | 81 | 246 | 4.0 | 7.0 | 0.00 | 0.00 | 0.00 | 43 | 1010.0 |
| 20260504232944 | 81 | 220 | 6.0 | 9.0 | 0.00 | 0.00 | 0.00 | 43 | 1010.0 |
| 20260504232444 | 81 | 283 | 5.0 | 12.0 | 0.00 | 0.00 | 0.00 | 42 | 1010.0 |
| 20260504231945 | 81 | 208 | 3.0 | 10.0 | 0.00 | 0.00 | 0.00 | 41 | 1010.0 |
| 20260504231444 | 81 | 241 | 6.0 | 10.0 | 0.00 | 0.00 | 0.00 | 41 | 1010.0 |
| 20260504230944 | 80 | 209 | 6.0 | 9.0 | 0.00 | 0.00 | 0.00 | 41 | 1009.0 |
| 20260504230445 | 81 | 202 | 7.0 | 10.0 | 0.00 | 0.00 | 0.00 | 42 | 1009.0 |
| 20260504225944 | 81 | 209 | 6.0 | 10.0 | 0.00 | 0.00 | 0.00 | 41 | 1009.0 |
| 20260504225445 | 81 | 170 | 5.0 | 9.0 | 0.00 | 0.00 | 0.00 | 40 | 1009.0 |
| 20260504224945 | 80 | 217 | 5.0 | 12.0 | 0.00 | 0.00 | 0.00 | 42 | 1009.0 |
| 20260504224445 | 81 | 193 | 5.0 | 12.0 | 0.00 | 0.00 | 0.00 | 41 | 1009.0 |
| 20260504223944 | 81 | 197 | 5.0 | 11.0 | 0.00 | 0.00 | 0.00 | 42 | 1009.0 |
| 20260504223445 | 81 | 162 | 4.0 | 8.0 | 0.00 | 0.00 | 0.00 | 41 | 1008.0 |
| 20260504222944 | 81 | 350 | 6.0 | 9.0 | 0.00 | 0.00 | 0.00 | 41 | 1008.0 |
| 20260504222445 | 81 | 196 | 3.0 | 9.0 | 0.00 | 0.00 | 0.00 | 41 | 1008.0 |
| 20260504221944 | 81 | 138 | 4.0 | 8.0 | 0.00 | 0.00 | 0.00 | 42 | 1008.0 |
| 20260504221445 | 81 | 255 | 7.0 | 9.0 | 0.00 | 0.00 | 0.00 | 40 | 1008.0 |
| 20260504220944 | 81 | 295 | 5.0 | 9.0 | 0.00 | 0.00 | 0.00 | 41 | 1008.0 |
| 20260504220445 | 80 | 305 | 3.0 | 10.0 | 0.00 | 0.00 | 0.00 | 43 | 1008.0 |
| 20260504215946 | 80 | 193 | 6.0 | 10.0 | 0.00 | 0.00 | 0.00 | 43 | 1008.0 |
| 20260504215445 | 79 | 228 | 6.0 | 10.0 | 0.00 | 0.00 | 0.00 | 44 | 1008.0 |
| 20260504214944 | 79 | 268 | 7.0 | 11.0 | 0.00 | 0.00 | 0.00 | 43 | 1008.0 |
| 20260504214448 | 81 | 171 | 7.0 | 11.0 | 0.00 | 0.00 | 0.00 | 43 | 1008.0 |
| 20260504213945 | 81 | 221 | 3.0 | 8.0 | 0.00 | 0.00 | 0.00 | 43 | 1007.0 |
| 20260504213445 | 80 | 303 | 4.0 | 7.0 | 0.00 | 0.00 | 0.00 | 44 | 1007.0 |
| 20260504212944 | 79 | 257 | 4.0 | 8.0 | 0.00 | 0.00 | 0.00 | 44 | 1007.0 |
| 20260504212444 | 78 | 345 | 7.0 | 11.0 | 0.00 | 0.00 | 0.00 | 44 | 1007.0 |
| 20260504211945 | 78 | 255 | 6.0 | 11.0 | 0.00 | 0.00 | 0.00 | 45 | 1007.0 |
| 20260504211444 | 78 | 155 | 6.0 | 9.0 | 0.00 | 0.00 | 0.00 | 43 | 1007.0 |
| 20260504210945 | 79 | 264 | 3.0 | 9.0 | 0.00 | 0.00 | 0.00 | 42 | 1007.0 |
| 20260504210444 | 79 | 255 | 5.0 | 9.0 | 0.00 | 0.00 | 0.00 | 44 | 1007.0 |
| 20260504205944 | 80 | 180 | 4.0 | 8.0 | 0.00 | 0.00 | 0.00 | 44 | 1007.0 |
| 20260504205448 | 80 | 165 | 4.0 | 8.0 | 0.00 | 0.00 | 0.00 | 43 | 1007.0 |
| 20260504204944 | 79 | 240 | 4.0 | 7.0 | 0.00 | 0.00 | 0.00 | 47 | 1007.0 |
| 20260504204444 | 78 | 141 | 6.0 | 9.0 | 0.00 | 0.00 | 0.00 | 44 | 1007.0 |
| 20260504203945 | 78 | 242 | 7.0 | 9.0 | 0.00 | 0.00 | 0.00 | 46 | 1007.0 |
| 20260504203447 | 79 | 181 | 4.0 | 6.0 | 0.00 | 0.00 | 0.00 | 46 | 1007.0 |
| 20260504202945 | 78 | 198 | 3.0 | 9.0 | 0.00 | 0.00 | 0.00 | 47 | 1007.0 |
| 20260504202444 | 77 | 297 | 6.0 | 9.0 | 0.00 | 0.00 | 0.00 | 48 | 1007.0 |
| 20260504201946 | 77 | 232 | 4.0 | 10.0 | 0.00 | 0.00 | 0.00 | 49 | 1007.0 |
| 20260504201446 | 76 | 263 | 7.0 | 10.0 | 0.00 | 0.00 | 0.00 | 49 | 1007.0 |
| 20260504200944 | 76 | 303 | 5.0 | 10.0 | 0.00 | 0.00 | 0.00 | 50 | 1007.0 |
| 20260504200446 | 76 | 269 | 7.0 | 10.0 | 0.00 | 0.00 | 0.00 | 51 | 1007.0 |
| 20260504195945 | 76 | 198 | 8.0 | 10.0 | 0.00 | 0.00 | 0.00 | 49 | 1006.0 |
| 20260504195449 | 77 | 143 | 5.0 | 9.0 | 0.00 | 0.00 | 0.00 | 49 | 1006.0 |
| 20260504194945 | 77 | 231 | 4.0 | 9.0 | 0.00 | 0.00 | 0.00 | 50 | 1006.0 |
| 20260504194446 | 76 | 198 | 6.0 | 10.0 | 0.00 | 0.00 | 0.00 | 52 | 1006.0 |
| 20260504193945 | 77 | 224 | 5.0 | 8.0 | 0.00 | 0.00 | 0.00 | 50 | 1006.0 |
| 20260504193444 | 76 | 180 | 5.0 | 9.0 | 0.00 | 0.00 | 0.00 | 51 | 1006.0 |
| 20260504192945 | 76 | 216 | 5.0 | 9.0 | 0.00 | 0.00 | 0.00 | 50 | 1006.0 |
| 20260504192444 | 76 | 222 | 7.0 | 9.0 | 0.00 | 0.00 | 0.00 | 50 | 1006.0 |
| 20260504191947 | 76 | 216 | 4.0 | 8.0 | 0.00 | 0.00 | 0.00 | 52 | 1006.0 |
| 20260504191444 | 74 | 194 | 6.0 | 9.0 | 0.00 | 0.00 | 0.00 | 52 | 1006.0 |
| 20260504190945 | 75 | 225 | 5.0 | 10.0 | 0.00 | 0.00 | 0.00 | 53 | 1006.0 |
| 20260504190444 | 74 | 262 | 7.0 | 9.0 | 0.00 | 0.00 | 0.00 | 53 | 1006.0 |
| 20260504185945 | 75 | 259 | 5.0 | 9.0 | 0.00 | 0.00 | 0.00 | 52 | 1006.0 |
| 20260504185445 | 74 | 165 | 7.0 | 9.0 | 0.00 | 0.00 | 0.00 | 52 | 1006.0 |
| 20260504184944 | 75 | 225 | 7.0 | 10.0 | 0.00 | 0.00 | 0.00 | 50 | 1005.0 |
| 20260504184445 | 76 | 227 | 5.0 | 8.0 | 0.00 | 0.00 | 0.00 | 50 | 1005.0 |
| 20260504183946 | 75 | 252 | 6.0 | 8.0 | 0.00 | 0.00 | 0.00 | 50 | 1005.0 |
| 20260504183445 | 75 | 200 | 6.0 | 10.0 | 0.00 | 0.00 | 0.00 | 50 | 1005.0 |
| 20260504182945 | 76 | 151 | 4.0 | 8.0 | 0.00 | 0.00 | 0.00 | 47 | 1005.0 |
| 20260504182445 | 76 | 228 | 6.0 | 8.0 | 0.00 | 0.00 | 0.00 | 48 | 1005.0 |
| 20260504181947 | 75 | 124 | 4.0 | 6.0 | 0.00 | 0.00 | 0.00 | 48 | 1005.0 |
| 20260504181444 | 75 | 119 | 4.0 | 6.0 | 0.00 | 0.00 | 0.00 | 48 | 1005.0 |
| 20260504180947 | 74 | 114 | 4.0 | 7.0 | 0.00 | 0.00 | 0.00 | 49 | 1005.0 |
| 20260504180445 | 74 | 136 | 4.0 | 7.0 | 0.00 | 0.00 | 0.00 | 49 | 1005.0 |
| 20260504175945 | 74 | 157 | 4.0 | 6.0 | 0.00 | 0.00 | 0.00 | 49 | 1005.0 |
| 20260504175444 | 74 | 135 | 3.0 | 5.0 | 0.00 | 0.00 | 0.00 | 50 | 1005.0 |
| 20260504174945 | 73 | 123 | 4.0 | 5.0 | 0.00 | 0.00 | 0.00 | 50 | 1005.0 |
| 20260504174445 | 72 | 140 | 4.0 | 5.0 | 0.00 | 0.00 | 0.00 | 51 | 1005.0 |
| 20260504173944 | 72 | 144 | 4.0 | 6.0 | 0.00 | 0.00 | 0.00 | 51 | 1005.0 |
| 20260504173445 | 73 | 124 | 4.0 | 6.0 | 0.00 | 0.00 | 0.00 | 51 | 1005.0 |
| 20260504172945 | 74 | 111 | 4.0 | 5.0 | 0.00 | 0.00 | 0.00 | 50 | 1006.0 |
| 20260504172445 | 75 | 109 | 3.0 | 5.0 | 0.00 | 0.00 | 0.00 | 49 | 1006.0 |
| 20260504171945 | 74 | 126 | 3.0 | 7.0 | 0.00 | 0.00 | 0.00 | 50 | 1006.0 |
| 20260504171445 | 74 | 193 | 3.0 | 4.0 | 0.00 | 0.00 | 0.00 | 50 | 1006.0 |
| 20260504170946 | 73 | 142 | 3.0 | 5.0 | 0.00 | 0.00 | 0.00 | 52 | 1006.0 |
| 20260504170445 | 72 | 114 | 4.0 | 5.0 | 0.00 | 0.00 | 0.00 | 52 | 1006.0 |
| 20260504150945 | 62 | 113 | 2.0 | 3.0 | 0.00 | 0.00 | 0.00 | 62 | 1008.0 |
| 20260504150446 | 62 | 130 | 2.0 | 3.0 | 0.00 | 0.00 | 0.00 | 64 | 1008.0 |
| 20260504140945 | 55 | 107 | 2.0 | 2.0 | 0.00 | 0.00 | 0.00 | 73 | 1007.0 |
| 20260504140444 | 55 | 88 | 0.0 | 0.0 | 0.00 | 0.00 | 0.00 | 73 | 1006.0 |
| 20260504130444 | 54 | 359 | 0.0 | 0.0 | 0.00 | 0.00 | 0.00 | 69 | 1004.0 |
| 20260504110445 | 55 | 289 | 1.0 | 1.0 | 0.00 | 0.00 | 0.00 | 64 | 1009.0 |
| 20260504100444 | 57 | 280 | 0.0 | 2.0 | 0.00 | 0.00 | 0.00 | 59 | 1010.0 |
| 20260504081502 | 62 | 279 | 3.0 | 3.0 | 0.00 | 0.00 | 0.00 | 50 | 1012.0 |
| 20260504080945 | 62 | 280 | 0.0 | 1.0 | 0.00 | 0.00 | 0.00 | 48 | 1012.0 |
| 20260504080445 | 63 | 280 | 1.0 | 3.0 | 0.00 | 0.00 | 0.00 | 49 | 1012.0 |